Powrót do katalogu

SL-14 DEB

AktywnyPO
NORAD 25227·DEBRIS·🇷🇺 Russia

Wystrzelony Aug 18, 1987 z Plesetsk Cosmodrome

Loading…

Następne Przeloty (najbliższe 24 godziny)

TLE

ŚwieżeSource: Space-Track

Epoka: Sep 13, 2026, 20:31 UTC

1 25227U 87068BE  26256.85515528  .00007260  00000-0  16904-2 0  9994
2 25227  82.5179 200.0244 0014856  26.0546 334.1398 14.54688780469844

Śledź SL-14 DEB w czasie rzeczywistym z AllMySat

Download on the App Store